Year,Month,Day,Hour,Minute,Value (Times are PST for windgust in km/hr)
2021,11,15,01,05,1.60
2021,11,15,09,37,8.10
2021,11,15,09,38,3.20
2021,11,15,09,41,17.70
2021,11,15,09,46,1.60
2021,11,15,09,51,1.60
2021,11,15,09,52,1.60
2021,11,15,09,59,16.10
2021,11,15,10,00,9.60
2021,11,15,10,01,6.40
2021,11,15,10,05,9.60
2021,11,15,10,06,1.60
2021,11,15,10,09,1.60
2021,11,15,10,12,8.10
2021,11,15,10,13,8.10
2021,11,15,10,14,8.10
2021,11,15,10,15,4.80
2021,11,15,10,16,9.60
2021,11,15,10,17,20.90
2021,11,15,10,18,19.30
2021,11,15,10,20,16.10
2021,11,15,10,21,11.30
2021,11,15,10,22,6.40
2021,11,15,10,23,12.90
2021,11,15,10,24,11.30
2021,11,15,10,25,22.50
2021,11,15,10,26,24.20
2021,11,15,10,27,14.50
2021,11,15,10,29,1.60
2021,11,15,10,30,1.60
2021,11,15,10,31,20.90
2021,11,15,10,32,20.90
2021,11,15,10,33,20.90
2021,11,15,10,34,20.90
2021,11,15,10,35,27.40
2021,11,15,10,36,24.20
2021,11,15,10,37,27.40
2021,11,15,10,38,24.20
2021,11,15,10,39,22.50
2021,11,15,10,40,30.60
2021,11,15,10,41,22.50
2021,11,15,10,42,24.20
2021,11,15,10,50,1.60
2021,11,15,10,53,11.30
2021,11,15,10,54,20.90
2021,11,15,10,55,19.30
2021,11,15,10,56,17.70
2021,11,15,10,57,11.30
2021,11,15,10,58,19.30
2021,11,15,10,59,22.50
2021,11,15,11,00,19.30
2021,11,15,11,01,19.30
2021,11,15,11,02,16.10
2021,11,15,11,04,20.90
2021,11,15,11,05,24.20
2021,11,15,11,06,19.30
2021,11,15,11,07,22.50
2021,11,15,11,08,19.30
2021,11,15,11,09,20.90
2021,11,15,11,10,19.30
2021,11,15,11,11,24.20
2021,11,15,11,12,24.20
2021,11,15,11,13,22.50
2021,11,15,11,14,19.30
2021,11,15,11,15,17.70
2021,11,15,11,16,20.90
2021,11,15,11,17,29.00
2021,11,15,11,18,16.10
2021,11,15,11,19,25.70
2021,11,15,11,20,20.90
2021,11,15,11,21,27.40
2021,11,15,11,22,29.00
2021,11,15,11,23,19.30
2021,11,15,11,24,20.90
2021,11,15,11,25,29.00
2021,11,15,11,26,35.40
2021,11,15,11,27,32.20
2021,11,15,11,28,30.60
2021,11,15,11,29,35.40
2021,11,15,11,30,20.90
2021,11,15,11,31,20.90
2021,11,15,11,32,20.90
2021,11,15,11,33,25.70
2021,11,15,11,34,25.70
2021,11,15,11,35,30.60
2021,11,15,11,36,29.00
2021,11,15,11,37,24.20
2021,11,15,11,38,22.50
2021,11,15,11,39,27.40
2021,11,15,11,40,29.00
2021,11,15,11,41,32.20
2021,11,15,11,42,30.60
2021,11,15,11,43,33.80
2021,11,15,11,44,35.40
2021,11,15,11,45,45.10
2021,11,15,11,46,33.80
2021,11,15,11,47,32.20
2021,11,15,11,48,27.40
2021,11,15,11,49,30.60
2021,11,15,11,50,32.20
2021,11,15,11,51,32.20
2021,11,15,11,52,41.80
2021,11,15,11,53,41.80
2021,11,15,11,54,27.40
2021,11,15,11,55,45.10
2021,11,15,11,56,38.60
2021,11,15,11,57,33.80
2021,11,15,11,58,41.80
2021,11,15,11,59,29.00
2021,11,15,12,00,29.00
2021,11,15,12,01,49.90
2021,11,15,12,02,37.00
2021,11,15,12,03,35.40
2021,11,15,12,04,43.50
2021,11,15,12,05,49.90
2021,11,15,12,06,32.20
2021,11,15,12,07,43.50
2021,11,15,12,08,45.10
2021,11,15,12,09,45.10
2021,11,15,12,10,37.00
2021,11,15,12,11,38.60
2021,11,15,12,12,40.20
2021,11,15,12,13,35.40
2021,11,15,12,14,40.20
2021,11,15,12,15,53.10
2021,11,15,12,16,37.00
2021,11,15,12,17,49.90
2021,11,15,12,18,37.00
2021,11,15,12,19,43.50
2021,11,15,12,20,48.30
2021,11,15,12,21,45.10
2021,11,15,12,22,46.70
2021,11,15,12,23,32.20
2021,11,15,12,24,33.80
2021,11,15,12,25,51.50
2021,11,15,12,26,53.10
2021,11,15,12,27,49.90
2021,11,15,12,28,48.30
2021,11,15,12,29,43.50
2021,11,15,12,30,40.20
2021,11,15,12,31,27.40
2021,11,15,12,32,40.20
2021,11,15,12,33,41.80
2021,11,15,12,34,33.80
2021,11,15,12,35,35.40
2021,11,15,12,36,38.60
2021,11,15,12,37,38.60
2021,11,15,12,38,32.20
2021,11,15,12,39,38.60
2021,11,15,12,40,41.80
2021,11,15,12,41,40.20
2021,11,15,12,42,32.20
2021,11,15,12,43,61.20
2021,11,15,12,44,45.10
2021,11,15,12,45,32.20
2021,11,15,12,46,33.80
2021,11,15,12,47,27.40
2021,11,15,12,48,32.20
2021,11,15,12,49,46.70
2021,11,15,12,50,41.80
2021,11,15,12,51,40.20
2021,11,15,12,52,45.10
2021,11,15,12,53,51.50
2021,11,15,12,54,40.20
2021,11,15,12,55,45.10
2021,11,15,12,56,43.50
2021,11,15,12,57,33.80
2021,11,15,12,58,45.10
2021,11,15,12,59,46.70
2021,11,15,13,00,49.90
2021,11,15,13,01,33.80
2021,11,15,13,02,29.00
2021,11,15,13,03,41.80
2021,11,15,13,04,46.70
2021,11,15,13,05,38.60
2021,11,15,13,06,37.00
2021,11,15,13,07,45.10
2021,11,15,13,08,38.60
2021,11,15,13,09,53.10
2021,11,15,13,10,40.20
2021,11,15,13,11,46.70
2021,11,15,13,12,29.00
2021,11,15,13,13,38.60
2021,11,15,13,14,32.20
2021,11,15,13,15,43.50
2021,11,15,13,16,35.40
2021,11,15,13,17,30.60
2021,11,15,13,18,35.40
2021,11,15,13,19,35.40
2021,11,15,13,20,33.80
2021,11,15,13,21,37.00
2021,11,15,13,22,37.00
2021,11,15,13,23,30.60
2021,11,15,13,24,33.80
2021,11,15,13,25,17.70
2021,11,15,13,26,27.40
2021,11,15,13,27,49.90
2021,11,15,13,28,41.80
2021,11,15,13,29,29.00
2021,11,15,13,30,30.60
2021,11,15,13,31,35.40
2021,11,15,13,32,33.80
2021,11,15,13,33,35.40
2021,11,15,13,34,38.60
2021,11,15,13,35,33.80
2021,11,15,13,36,43.50
2021,11,15,13,37,37.00
2021,11,15,13,38,38.60
2021,11,15,13,39,43.50
2021,11,15,13,40,43.50
2021,11,15,13,41,35.40
2021,11,15,13,42,37.00
2021,11,15,13,43,32.20
2021,11,15,13,44,30.60
2021,11,15,13,45,29.00
2021,11,15,13,46,17.70
2021,11,15,13,47,24.20
2021,11,15,13,48,19.30
2021,11,15,13,49,22.50
2021,11,15,13,50,49.90
2021,11,15,13,51,51.50
2021,11,15,13,52,45.10
2021,11,15,13,53,37.00
2021,11,15,13,54,35.40
2021,11,15,13,55,48.30
2021,11,15,13,56,38.60
2021,11,15,13,57,33.80
2021,11,15,13,58,38.60
2021,11,15,13,59,51.50
2021,11,15,14,00,35.40
2021,11,15,14,01,51.50
2021,11,15,14,02,54.70
2021,11,15,14,03,49.90
2021,11,15,14,04,40.20
2021,11,15,14,05,45.10
2021,11,15,14,06,30.60
2021,11,15,14,07,48.30
2021,11,15,14,08,30.60
2021,11,15,14,09,33.80
2021,11,15,14,10,32.20
2021,11,15,14,11,46.70
2021,11,15,14,12,64.40
2021,11,15,14,13,33.80
2021,11,15,14,14,38.60
2021,11,15,14,15,45.10
2021,11,15,14,16,53.10
2021,11,15,14,17,27.40
2021,11,15,14,18,30.60
2021,11,15,14,19,83.70
2021,11,15,14,20,66.00
2021,11,15,14,21,45.10
2021,11,15,14,22,35.40
2021,11,15,14,23,40.20
2021,11,15,14,24,37.00
2021,11,15,14,25,53.10
2021,11,15,14,26,41.80
2021,11,15,14,27,32.20
2021,11,15,14,28,43.50
2021,11,15,14,29,64.40
2021,11,15,14,30,64.40
2021,11,15,14,31,45.10
2021,11,15,14,32,41.80
2021,11,15,14,33,49.90
2021,11,15,14,34,40.20
2021,11,15,14,35,46.70
2021,11,15,14,36,35.40
2021,11,15,14,37,53.10
2021,11,15,14,38,48.30
2021,11,15,14,39,40.20
2021,11,15,14,40,45.10
2021,11,15,14,41,53.10
2021,11,15,14,42,38.60
2021,11,15,14,43,56.30
2021,11,15,14,44,37.00
2021,11,15,14,45,37.00
2021,11,15,14,46,35.40
2021,11,15,14,47,33.80
2021,11,15,14,48,33.80
2021,11,15,14,49,53.10
2021,11,15,14,50,30.60
2021,11,15,14,51,27.40
2021,11,15,14,52,38.60
2021,11,15,14,53,37.00
2021,11,15,14,54,48.30
2021,11,15,14,55,46.70
2021,11,15,14,56,43.50
2021,11,15,14,57,30.60
2021,11,15,14,58,32.20
2021,11,15,14,59,38.60
2021,11,15,15,00,30.60
2021,11,15,15,01,46.70
2021,11,15,15,02,38.60
2021,11,15,15,03,53.10
2021,11,15,15,04,35.40
2021,11,15,15,05,45.10
2021,11,15,15,06,45.10
2021,11,15,15,07,53.10
2021,11,15,15,08,41.80
2021,11,15,15,09,35.40
2021,11,15,15,10,27.40
2021,11,15,15,11,25.70
2021,11,15,15,12,35.40
2021,11,15,15,13,43.50
2021,11,15,15,14,38.60
2021,11,15,15,15,32.20
2021,11,15,15,16,35.40
2021,11,15,15,17,53.10
2021,11,15,15,18,53.10
2021,11,15,15,19,53.10
2021,11,15,15,20,32.20
2021,11,15,15,21,32.20
2021,11,15,15,22,43.50
2021,11,15,15,23,53.10
2021,11,15,15,24,32.20
2021,11,15,15,25,33.80
2021,11,15,15,26,37.00
2021,11,15,15,27,33.80
2021,11,15,15,28,40.20
2021,11,15,15,29,41.80
2021,11,15,15,30,56.30
2021,11,15,15,31,27.40
2021,11,15,15,32,48.30
2021,11,15,15,33,40.20
2021,11,15,15,34,45.10
2021,11,15,15,35,40.20
2021,11,15,15,36,38.60
2021,11,15,15,37,38.60
2021,11,15,15,38,32.20
2021,11,15,15,39,32.20
2021,11,15,15,40,48.30
2021,11,15,15,41,46.70
2021,11,15,15,42,43.50
2021,11,15,15,43,35.40
2021,11,15,15,44,53.10
2021,11,15,15,45,59.50
2021,11,15,15,46,41.80
2021,11,15,15,47,37.00
2021,11,15,15,48,30.60
2021,11,15,15,49,38.60
2021,11,15,15,50,29.00
2021,11,15,15,51,46.70
2021,11,15,15,52,35.40
2021,11,15,15,53,38.60
2021,11,15,15,54,32.20
2021,11,15,15,55,22.50
2021,11,15,15,56,32.20
2021,11,15,15,57,37.00
2021,11,15,15,58,40.20
2021,11,15,15,59,27.40
2021,11,15,16,00,41.80
2021,11,15,16,01,30.60
2021,11,15,16,02,22.50
2021,11,15,16,03,25.70
2021,11,15,16,04,32.20
2021,11,15,16,05,41.80
2021,11,15,16,06,43.50
2021,11,15,16,07,40.20
2021,11,15,16,08,24.20
2021,11,15,16,09,46.70
2021,11,15,16,10,37.00
2021,11,15,16,11,29.00
2021,11,15,16,12,53.10
2021,11,15,16,13,35.40
2021,11,15,16,14,38.60
2021,11,15,16,15,37.00
2021,11,15,16,16,22.50
2021,11,15,16,17,53.10
2021,11,15,16,18,30.60
2021,11,15,16,19,29.00
2021,11,15,16,20,27.40
2021,11,15,16,21,32.20
2021,11,15,16,22,43.50
2021,11,15,16,23,25.70
2021,11,15,16,24,30.60
2021,11,15,16,25,37.00
2021,11,15,16,26,38.60
2021,11,15,16,27,40.20
2021,11,15,16,28,27.40
2021,11,15,16,29,30.60
2021,11,15,16,30,32.20
2021,11,15,16,31,32.20
2021,11,15,16,32,38.60
2021,11,15,16,33,35.40
2021,11,15,16,34,30.60
2021,11,15,16,35,33.80
2021,11,15,16,36,30.60
2021,11,15,16,37,32.20
2021,11,15,16,38,51.50
2021,11,15,16,39,29.00
2021,11,15,16,40,37.00
2021,11,15,16,41,37.00
2021,11,15,16,42,33.80
2021,11,15,16,43,49.90
2021,11,15,16,44,22.50
2021,11,15,16,45,41.80
2021,11,15,16,46,32.20
2021,11,15,16,47,37.00
2021,11,15,16,48,33.80
2021,11,15,16,49,38.60
2021,11,15,16,50,45.10
2021,11,15,16,51,35.40
2021,11,15,16,52,29.00
2021,11,15,16,53,45.10
2021,11,15,16,54,33.80
2021,11,15,16,55,27.40
2021,11,15,16,56,30.60
2021,11,15,16,57,48.30
2021,11,15,16,58,46.70
2021,11,15,16,59,41.80
2021,11,15,17,00,48.30
2021,11,15,17,01,41.80
2021,11,15,17,02,30.60
2021,11,15,17,03,27.40
2021,11,15,17,04,40.20
2021,11,15,17,05,35.40
2021,11,15,17,06,48.30
2021,11,15,17,07,33.80
2021,11,15,17,08,33.80
2021,11,15,17,09,35.40
2021,11,15,17,10,40.20
2021,11,15,17,11,27.40
2021,11,15,17,12,40.20
2021,11,15,17,13,32.20
2021,11,15,17,14,30.60
2021,11,15,17,15,38.60
2021,11,15,17,16,33.80
2021,11,15,17,17,16.10
2021,11,15,17,18,17.70
2021,11,15,17,19,32.20
2021,11,15,17,20,27.40
2021,11,15,17,21,22.50
2021,11,15,17,22,35.40
2021,11,15,17,23,27.40
2021,11,15,17,24,29.00
2021,11,15,17,25,32.20
2021,11,15,17,26,33.80
2021,11,15,17,27,40.20
2021,11,15,17,28,29.00
2021,11,15,17,29,22.50
2021,11,15,17,30,30.60
2021,11,15,17,31,25.70
2021,11,15,17,32,27.40
2021,11,15,17,33,40.20
2021,11,15,17,34,32.20
2021,11,15,17,35,37.00
2021,11,15,17,36,30.60
2021,11,15,17,37,24.20
2021,11,15,17,38,29.00
2021,11,15,17,39,37.00
2021,11,15,17,40,33.80
2021,11,15,17,41,29.00
2021,11,15,17,42,30.60
2021,11,15,17,43,30.60
2021,11,15,17,44,27.40
2021,11,15,17,45,32.20
2021,11,15,17,46,37.00
2021,11,15,17,47,30.60
2021,11,15,17,48,30.60
2021,11,15,17,49,29.00
2021,11,15,17,50,37.00
2021,11,15,17,51,30.60
2021,11,15,17,52,27.40
2021,11,15,17,53,30.60
2021,11,15,17,54,33.80
2021,11,15,17,55,35.40
2021,11,15,17,56,27.40
2021,11,15,17,57,40.20
2021,11,15,17,58,30.60
2021,11,15,17,59,33.80
2021,11,15,18,00,27.40
2021,11,15,18,01,29.00
2021,11,15,18,02,22.50
2021,11,15,18,03,19.30
2021,11,15,18,04,20.90
2021,11,15,18,05,22.50
2021,11,15,18,06,19.30
2021,11,15,18,07,24.20
2021,11,15,18,08,32.20
2021,11,15,18,09,24.20
2021,11,15,18,10,30.60
2021,11,15,18,11,30.60
2021,11,15,18,12,32.20
2021,11,15,18,13,22.50
2021,11,15,18,14,29.00
2021,11,15,18,15,33.80
2021,11,15,18,16,22.50
2021,11,15,18,17,24.20
2021,11,15,18,18,35.40
2021,11,15,18,19,27.40
2021,11,15,18,20,37.00
2021,11,15,18,21,33.80
2021,11,15,18,22,30.60
2021,11,15,18,23,25.70
2021,11,15,18,24,20.90
2021,11,15,18,25,22.50
2021,11,15,18,26,24.20
2021,11,15,18,27,27.40
2021,11,15,18,28,17.70
2021,11,15,18,29,17.70
2021,11,15,18,30,27.40
2021,11,15,18,31,25.70
2021,11,15,18,32,27.40
2021,11,15,18,33,19.30
2021,11,15,18,34,35.40
2021,11,15,18,35,24.20
2021,11,15,18,36,29.00
2021,11,15,18,37,32.20
2021,11,15,18,38,29.00
2021,11,15,18,39,30.60
2021,11,15,18,40,27.40
2021,11,15,18,41,20.90
2021,11,15,18,42,32.20
2021,11,15,18,43,35.40
2021,11,15,18,44,25.70
2021,11,15,18,45,35.40
2021,11,15,18,46,29.00
2021,11,15,18,47,33.80
2021,11,15,18,48,27.40
2021,11,15,18,49,27.40
2021,11,15,18,50,33.80
2021,11,15,18,51,41.80
2021,11,15,18,52,33.80
2021,11,15,18,53,32.20
2021,11,15,18,54,29.00
2021,11,15,18,55,27.40
2021,11,15,18,56,35.40
2021,11,15,18,57,24.20
2021,11,15,18,58,25.70
2021,11,15,18,59,35.40
2021,11,15,19,00,25.70
2021,11,15,19,01,29.00
2021,11,15,19,02,37.00
2021,11,15,19,03,40.20
2021,11,15,19,04,24.20
2021,11,15,19,05,27.40
2021,11,15,19,06,25.70
2021,11,15,19,07,19.30
2021,11,15,19,08,20.90
2021,11,15,19,09,27.40
2021,11,15,19,10,24.20
2021,11,15,19,11,29.00
2021,11,15,19,12,32.20
2021,11,15,19,13,32.20
2021,11,15,19,14,25.70
2021,11,15,19,15,22.50
2021,11,15,19,16,25.70
2021,11,15,19,17,29.00
2021,11,15,19,18,24.20
2021,11,15,19,19,24.20
2021,11,15,19,20,20.90
2021,11,15,19,21,20.90
2021,11,15,19,22,22.50
2021,11,15,19,23,16.10
2021,11,15,19,24,22.50
2021,11,15,19,25,17.70
2021,11,15,19,26,16.10
2021,11,15,19,27,30.60
2021,11,15,19,28,20.90
2021,11,15,19,29,35.40
2021,11,15,19,30,27.40
2021,11,15,19,31,32.20
2021,11,15,19,32,24.20
2021,11,15,19,33,25.70
2021,11,15,19,34,25.70
2021,11,15,19,35,24.20
2021,11,15,19,36,19.30
2021,11,15,19,37,24.20
2021,11,15,19,38,27.40
2021,11,15,19,39,30.60
2021,11,15,19,40,32.20
2021,11,15,19,41,27.40
2021,11,15,19,42,27.40
2021,11,15,19,43,27.40
2021,11,15,19,44,27.40
2021,11,15,19,45,25.70
2021,11,15,19,46,30.60
2021,11,15,19,47,30.60
2021,11,15,19,48,25.70
2021,11,15,19,49,24.20
2021,11,15,19,50,27.40
2021,11,15,19,51,20.90
2021,11,15,19,52,32.20
2021,11,15,19,53,24.20
2021,11,15,19,54,33.80
2021,11,15,19,55,30.60
2021,11,15,19,56,25.70
2021,11,15,19,57,22.50
2021,11,15,19,58,24.20
2021,11,15,19,59,22.50
2021,11,15,20,00,20.90
2021,11,15,20,01,17.70
2021,11,15,20,02,27.40
2021,11,15,20,03,22.50
2021,11,15,20,04,32.20
2021,11,15,20,05,29.00
2021,11,15,20,06,24.20
2021,11,15,20,07,29.00
2021,11,15,20,08,22.50
2021,11,15,20,09,25.70
2021,11,15,20,10,20.90
2021,11,15,20,11,25.70
2021,11,15,20,12,20.90
2021,11,15,20,13,24.20
2021,11,15,20,14,27.40
2021,11,15,20,15,24.20
2021,11,15,20,16,22.50
2021,11,15,20,17,20.90
2021,11,15,20,18,25.70
2021,11,15,20,19,30.60
2021,11,15,20,20,22.50
2021,11,15,20,21,32.20
2021,11,15,20,22,22.50
2021,11,15,20,23,25.70
2021,11,15,20,24,25.70
2021,11,15,20,25,27.40
2021,11,15,20,26,19.30
2021,11,15,20,27,9.60
2021,11,15,20,28,30.60
2021,11,15,20,29,25.70
2021,11,15,20,30,20.90
2021,11,15,20,31,16.10
2021,11,15,20,32,19.30
2021,11,15,20,33,17.70
2021,11,15,20,34,24.20
2021,11,15,20,35,20.90
2021,11,15,20,36,22.50
2021,11,15,20,37,16.10
2021,11,15,20,38,9.60
2021,11,15,20,39,20.90
2021,11,15,20,40,22.50
2021,11,15,20,41,17.70
2021,11,15,20,42,16.10
2021,11,15,20,43,17.70
2021,11,15,20,44,17.70
2021,11,15,20,45,14.50
2021,11,15,20,46,24.20
2021,11,15,20,47,22.50
2021,11,15,20,48,17.70
2021,11,15,20,49,16.10
2021,11,15,20,50,22.50
2021,11,15,20,51,16.10
2021,11,15,20,52,12.90
2021,11,15,20,53,20.90
2021,11,15,20,54,19.30
2021,11,15,20,55,24.20
2021,11,15,20,56,32.20
2021,11,15,20,57,20.90
2021,11,15,20,58,29.00
2021,11,15,20,59,24.20
2021,11,15,21,00,25.70
2021,11,15,21,01,24.20
2021,11,15,21,02,17.70
2021,11,15,21,03,24.20
2021,11,15,21,04,22.50
2021,11,15,21,05,30.60
2021,11,15,21,06,33.80
2021,11,15,21,07,30.60
2021,11,15,21,08,29.00
2021,11,15,21,09,30.60
2021,11,15,21,10,27.40
2021,11,15,21,11,27.40
2021,11,15,21,12,43.50
2021,11,15,21,13,27.40
2021,11,15,21,14,27.40
2021,11,15,21,15,27.40
2021,11,15,21,16,29.00
2021,11,15,21,17,35.40
2021,11,15,21,18,37.00
2021,11,15,21,19,22.50
2021,11,15,21,20,27.40
2021,11,15,21,21,29.00
2021,11,15,21,22,30.60
2021,11,15,21,23,22.50
2021,11,15,21,24,32.20
2021,11,15,21,25,30.60
2021,11,15,21,26,22.50
2021,11,15,21,27,25.70
2021,11,15,21,28,29.00
2021,11,15,21,29,20.90
2021,11,15,21,30,29.00
2021,11,15,21,31,30.60
2021,11,15,21,32,20.90
2021,11,15,21,33,33.80
2021,11,15,21,34,25.70
2021,11,15,21,35,29.00
2021,11,15,21,36,22.50
2021,11,15,21,37,20.90
2021,11,15,21,38,22.50
2021,11,15,21,39,25.70
2021,11,15,21,40,22.50
2021,11,15,21,41,25.70
2021,11,15,21,42,19.30
2021,11,15,21,43,19.30
2021,11,15,21,44,24.20
2021,11,15,21,45,20.90
2021,11,15,21,46,24.20
2021,11,15,21,47,16.10
2021,11,15,21,48,16.10
2021,11,15,21,49,16.10
2021,11,15,21,50,27.40
2021,11,15,21,51,25.70
2021,11,15,21,52,20.90
2021,11,15,21,53,14.50
2021,11,15,21,54,17.70
2021,11,15,21,55,16.10
2021,11,15,21,56,11.30
2021,11,15,21,57,9.60
2021,11,15,21,58,17.70
2021,11,15,21,59,25.70
2021,11,15,22,00,17.70
2021,11,15,22,01,1.60
2021,11,15,22,02,29.00
2021,11,15,22,03,22.50
2021,11,15,22,04,19.30
2021,11,15,22,05,19.30
2021,11,15,22,06,19.30
2021,11,15,22,07,17.70
2021,11,15,22,08,16.10
2021,11,15,22,09,17.70
2021,11,15,22,10,19.30
2021,11,15,22,11,24.20
2021,11,15,22,12,19.30
2021,11,15,22,13,14.50
2021,11,15,22,14,1.60
2021,11,15,22,15,16.10
2021,11,15,22,16,14.50
2021,11,15,22,17,14.50
2021,11,15,22,18,16.10
2021,11,15,22,19,19.30
2021,11,15,22,20,19.30
2021,11,15,22,21,20.90
2021,11,15,22,22,24.20
2021,11,15,22,23,24.20
2021,11,15,22,24,24.20
2021,11,15,22,25,22.50
2021,11,15,22,26,17.70
2021,11,15,22,27,19.30
2021,11,15,22,28,20.90
2021,11,15,22,29,16.10
2021,11,15,22,30,22.50
2021,11,15,22,31,22.50
2021,11,15,22,32,19.30
2021,11,15,22,33,20.90
2021,11,15,22,34,24.20
2021,11,15,22,35,16.10
2021,11,15,22,36,24.20
2021,11,15,22,37,22.50
2021,11,15,22,38,11.30
2021,11,15,22,39,16.10
2021,11,15,22,40,29.00
2021,11,15,22,41,25.70
2021,11,15,22,42,27.40
2021,11,15,22,43,29.00
2021,11,15,22,44,27.40
2021,11,15,22,45,27.40
2021,11,15,22,46,14.50
2021,11,15,22,47,1.60
2021,11,15,22,48,1.60
2021,11,15,22,49,30.60
2021,11,15,22,50,24.20
2021,11,15,22,51,24.20
2021,11,15,22,52,20.90
2021,11,15,22,53,16.10
2021,11,15,22,54,14.50
2021,11,15,22,55,9.60
2021,11,15,22,56,11.30
2021,11,15,22,57,24.20
2021,11,15,22,58,19.30
2021,11,15,22,59,24.20
2021,11,15,23,00,19.30
2021,11,15,23,01,17.70
2021,11,15,23,02,19.30
2021,11,15,23,03,20.90
2021,11,15,23,04,20.90
2021,11,15,23,05,22.50
2021,11,15,23,06,24.20
2021,11,15,23,07,22.50
2021,11,15,23,08,17.70
2021,11,15,23,09,22.50
2021,11,15,23,10,20.90
2021,11,15,23,11,19.30
2021,11,15,23,12,20.90
2021,11,15,23,13,17.70
2021,11,15,23,14,22.50
2021,11,15,23,15,24.20
2021,11,15,23,16,22.50
2021,11,15,23,17,24.20
2021,11,15,23,18,20.90
2021,11,15,23,19,24.20
2021,11,15,23,20,20.90
2021,11,15,23,21,25.70
2021,11,15,23,22,20.90
2021,11,15,23,23,20.90
2021,11,15,23,24,27.40
2021,11,15,23,25,27.40
2021,11,15,23,26,22.50
2021,11,15,23,27,22.50
2021,11,15,23,28,22.50
2021,11,15,23,29,20.90
2021,11,15,23,30,17.70
2021,11,15,23,31,16.10
2021,11,15,23,32,20.90
2021,11,15,23,33,19.30
2021,11,15,23,34,19.30
2021,11,15,23,35,14.50
2021,11,15,23,36,16.10
2021,11,15,23,37,16.10
2021,11,15,23,38,17.70
2021,11,15,23,39,19.30
2021,11,15,23,40,16.10
2021,11,15,23,41,29.00
2021,11,15,23,42,24.20
2021,11,15,23,43,19.30
2021,11,15,23,44,25.70
2021,11,15,23,45,22.50
2021,11,15,23,46,16.10
2021,11,15,23,47,16.10
2021,11,15,23,49,3.20
2021,11,15,23,50,22.50
2021,11,15,23,51,20.90
2021,11,15,23,52,20.90
2021,11,15,23,53,16.10
2021,11,15,23,54,14.50
2021,11,15,23,55,16.10
2021,11,15,23,56,16.10
2021,11,15,23,57,19.30
2021,11,15,23,58,27.40
2021,11,15,23,59,25.70
